Tracking 19242 objects as of 15-Aug-2018
HD Live streaming from Space Station
objects crossing your sky now

FENGYUN 1C DEB

Track FENGYUN 1C DEB now!
10-day predictions


NORAD ID: 31993
Int'l Code: 1999-025CPW
Perigee: 842.1 km
Apogee: 1,536.3 km
Inclination: 99.2 °
Period: 109.0 minutes
Semi major axis: 7560 km
RCS: 0.0118 m2 (small)
Launch date: May 10, 1999
Source: People's Republic of China (PRC)
Launch site: Taiyaun Space Center, China (TSC)

Note: This is SATELLITE DEBRIS
aabbcc
Your satellite tracking list
Your tracking list is empty




NASA's NSSDC Master Catalog

Two Line Element Set (TLE):
1 31993U 99025CPW 18227.46189317  .00001345  00000-0  19526-2 0  9997
2 31993  99.2347 103.6924 0459094 115.4892 249.4447 13.20693169535600
Source of the keplerian elements: AFSPC